Погода в Дружбе

Россия / Республика Тыва     51°00′24″N   90°13′11″E
темп.,
°C
ветер,
м/с
пор.,
м/с
влажн.,
%
обл.,
%
осадки,
мм/ч
давл.,
гПа
погр.,
м
19 мая, ср
ср1901:00+14св2250100 0.1 100652
04:00+10ссз2280100 0.8 1007136
07:00+12з0167100 0.8 1003156
10:00+17зсз1543100 0.1 1000954
13:00+21зсз3728100 0.1 9972744
16:00+21зюз7933100 0.0 9972270
19:00+17с8948100 0.4 996863
22:00+12всв2270100 1.0 1000151
20 мая, чт
чт2001:00+10св1178100 1.0 99810
04:00+9св1279100 0.8 99898
07:00+6св7989100 3.6 999768
10:00+3з1195100 7.3 1003479
13:00+3вюв1396100 12.8 1004335
16:00+3зюз1196100 3.8 1004278
19:00+4зюз2364100 5.3 1005429
22:00+2зсз3667100 0.3 1010485
21 мая, пт
пт2101:00+2з1267100 0.4 101291
04:00+1зюз1167100 0.1 101439
07:00+1юз1259100 0.3 1016177
10:00+3з0243100 0.5 10171167
13:00+5з1234100 1.3 10172109
16:00+5зюз1336100 0.5 10181774
19:00+6с1231100 0.9 10192190
22:00+3юв125360 0.1 1024213
22 мая, сб
сб2201:00+1зюз226367 0.1 102629
04:00−1юз22614 0.0 102735
07:00+2юз124413 0.0 1027339
10:00+5ссв013397 0.0 1025995
13:00+8ссв122698 0.0 10221454
16:00+10юз13226 0.0 10192269
19:00+11зюз55269 0.0 10181772
22:00+6юз3344100 0.0 102148
23 мая, вс
вс2301:00+5ююз114898 0.0 102214
04:00+4ююв115168 0.0 102210
07:00+6юв114760 0.0 1023188
10:00+9всв11396 0.0 10221048
13:00+12св223731 0.0 10201665
16:00+14вюв133535 0.0 10181816
19:00+15ю23335 0.0 10181482
22:00+10ю11495 0.0 102020